| time (UTC) | temp F | wind direction | speed knots | gust knots | rain 1hr in | rain 24hr in | rain mn in | humidity % | barometer mb |
| 20260507002539 | 52 | 278 | 0.0 | 0.0 | 0.00 | 0.00 | 0.00 | 58 | 1009.5 |
| 20260507002041 | 52 | 278 | 0.0 | 0.0 | 0.00 | 0.00 | 0.00 | 57 | 1009.4 |
| 20260507001528 | 53 | 278 | 0.0 | 0.9 | 0.00 | 0.00 | 0.00 | 56 | 1009.5 |
| 20260507001036 | 53 | 278 | 0.0 | 0.9 | 0.00 | 0.00 | 0.00 | 55 | 1009.5 |
| 20260507000539 | 53 | 278 | 0.0 | 0.9 | 0.00 | 0.00 | 0.00 | 54 | 1009.5 |
| 20260507000051 | 54 | 278 | 0.0 | 0.9 | 0.00 | 0.00 | 0.00 | 54 | 1009.5 |
| 20260506235543 | 54 | 278 | 0.0 | 0.0 | 0.00 | 0.00 | 0.00 | 53 | 1009.4 |
| 20260506235041 | 54 | 41 | 0.0 | 0.0 | 0.00 | 0.00 | 0.00 | 54 | 1009.6 |
| 20260506234542 | 54 | 41 | 0.0 | 0.0 | 0.00 | 0.00 | 0.00 | 53 | 1009.6 |
| 20260506234023 | 55 | 41 | 0.0 | 0.0 | 0.00 | 0.00 | 0.00 | 53 | 1009.6 |
| 20260506233527 | 55 | 41 | 0.0 | 1.7 | 0.00 | 0.00 | 0.00 | 52 | 1009.6 |
| 20260506233037 | 55 | 41 | 0.0 | 1.7 | 0.00 | 0.00 | 0.00 | 52 | 1009.6 |
| 20260506232559 | 55 | 56 | 0.0 | 0.9 | 0.00 | 0.00 | 0.00 | 52 | 1009.5 |
| 20260506232042 | 55 | 72 | 0.0 | 0.9 | 0.00 | 0.00 | 0.00 | 52 | 1009.5 |
| 20260506231546 | 55 | 72 | 0.0 | 2.6 | 0.00 | 0.00 | 0.00 | 52 | 1009.5 |
| 20260506231030 | 55 | 61 | 0.0 | 2.6 | 0.00 | 0.00 | 0.00 | 52 | 1009.6 |
| 20260506230527 | 55 | 78 | 0.0 | 0.9 | 0.00 | 0.00 | 0.00 | 52 | 1009.5 |
| 20260506230045 | 55 | 72 | 0.0 | 0.9 | 0.00 | 0.00 | 0.00 | 52 | 1009.5 |
| 20260506225537 | 55 | 72 | 0.0 | 0.9 | 0.00 | 0.00 | 0.00 | 53 | 1009.5 |
| 20260506225036 | 55 | 71 | 0.0 | 0.9 | 0.00 | 0.00 | 0.00 | 54 | 1009.5 |
| 20260506224522 | 55 | 76 | 0.0 | 7.0 | 0.00 | 0.00 | 0.00 | 55 | 1009.5 |
| 20260506224046 | 55 | 84 | 0.0 | 7.0 | 0.00 | 0.00 | 0.00 | 55 | 1009.6 |
| 20260506223543 | 57 | 64 | 0.0 | 3.5 | 0.00 | 0.00 | 0.00 | 51 | 1009.6 |
| 20260506223047 | 57 | 263 | 0.0 | 0.0 | 0.00 | 0.00 | 0.00 | 50 | 1009.5 |
| 20260506222526 | 57 | 263 | 0.0 | 0.0 | 0.00 | 0.00 | 0.00 | 50 | 1009.5 |
| 20260506222034 | 57 | 263 | 0.0 | 0.9 | 0.00 | 0.00 | 0.00 | 50 | 1009.5 |
| 20260506221520 | 57 | 263 | 0.0 | 1.7 | 0.00 | 0.00 | 0.00 | 51 | 1009.4 |
| 20260506221039 | 57 | 263 | 0.0 | 1.7 | 0.00 | 0.00 | 0.00 | 52 | 1009.5 |
| 20260506220533 | 56 | 251 | 0.0 | 0.9 | 0.00 | 0.00 | 0.00 | 55 | 1009.5 |
| 20260506215527 | 57 | 280 | 0.9 | 1.7 | 0.00 | 0.00 | 0.00 | 57 | 1009.6 |
| 20260506215040 | 57 | 278 | 0.0 | 0.9 | 0.00 | 0.00 | 0.00 | 54 | 1009.6 |
| 20260506214546 | 57 | 278 | 0.0 | 0.9 | 0.00 | 0.00 | 0.00 | 53 | 1009.6 |
| 20260506214032 | 57 | 278 | 0.0 | 0.9 | 0.00 | 0.00 | 0.00 | 51 | 1009.6 |
| 20260506213526 | 58 | 278 | 0.9 | 0.9 | 0.00 | 0.00 | 0.00 | 49 | 1009.6 |
| 20260506213028 | 58 | 278 | 0.0 | 0.9 | 0.00 | 0.00 | 0.00 | 47 | 1009.7 |
| 20260506212543 | 59 | 278 | 0.0 | 1.7 | 0.00 | 0.00 | 0.00 | 47 | 1009.7 |
| 20260506212021 | 59 | 264 | 0.9 | 1.7 | 0.00 | 0.00 | 0.00 | 46 | 1009.7 |
| 20260506211521 | 59 | 254 | 0.9 | 2.6 | 0.00 | 0.00 | 0.00 | 46 | 1009.6 |
| 20260506211029 | 59 | 246 | 1.7 | 2.6 | 0.00 | 0.00 | 0.00 | 47 | 1009.5 |
| 20260506210528 | 59 | 251 | 0.9 | 1.7 | 0.00 | 0.00 | 0.00 | 47 | 1009.5 |
| 20260506210046 | 60 | 245 | 0.0 | 1.7 | 0.00 | 0.00 | 0.00 | 46 | 1009.4 |
| 20260506205535 | 60 | 250 | 0.9 | 1.7 | 0.00 | 0.00 | 0.00 | 46 | 1009.4 |
| 20260506205033 | 60 | 247 | 0.0 | 0.0 | 0.00 | 0.00 | 0.00 | 45 | 1009.4 |
| 20260506204541 | 60 | 276 | 0.0 | 0.0 | 0.00 | 0.00 | 0.00 | 44 | 1009.3 |
| 20260506204021 | 60 | 276 | 0.0 | 0.0 | 0.00 | 0.00 | 0.00 | 44 | 1009.3 |
| 20260506203554 | 60 | 276 | 0.0 | 0.0 | 0.00 | 0.00 | 0.00 | 44 | 1009.2 |
| 20260506203022 | 60 | 276 | 0.0 | 0.0 | 0.00 | 0.00 | 0.00 | 44 | 1009.2 |
| 20260506202558 | 60 | 276 | 0.0 | 0.0 | 0.00 | 0.00 | 0.00 | 43 | 1009.2 |
| 20260506202028 | 61 | 276 | 0.0 | 0.9 | 0.00 | 0.00 | 0.00 | 42 | 1009.2 |
| 20260506201546 | 61 | 276 | 0.0 | 0.9 | 0.00 | 0.00 | 0.00 | 42 | 1009.1 |
| 20260506201043 | 61 | 276 | 0.0 | 0.9 | 0.00 | 0.00 | 0.00 | 41 | 1009.1 |
| 20260506200604 | 61 | 276 | 0.0 | 0.9 | 0.00 | 0.00 | 0.00 | 41 | 1009.0 |
| 20260506200106 | 62 | 276 | 0.0 | 1.7 | 0.00 | 0.00 | 0.00 | 40 | 1009.0 |
| 20260506195528 | 62 | 276 | 0.0 | 1.7 | 0.00 | 0.00 | 0.00 | 40 | 1009.0 |
| 20260506195023 | 63 | 282 | 0.9 | 4.3 | 0.00 | 0.00 | 0.00 | 38 | 1009.0 |
| 20260506194525 | 64 | 282 | 2.6 | 4.3 | 0.00 | 0.00 | 0.00 | 37 | 1008.9 |
| 20260506194035 | 64 | 259 | 2.6 | 3.5 | 0.00 | 0.00 | 0.00 | 36 | 1008.9 |
| 20260506193522 | 64 | 277 | 3.5 | 3.5 | 0.00 | 0.00 | 0.00 | 36 | 1008.8 |
| 20260506193023 | 65 | 276 | 2.6 | 3.5 | 0.00 | 0.00 | 0.00 | 35 | 1008.8 |
| 20260506192539 | 65 | 286 | 2.6 | 3.5 | 0.00 | 0.00 | 0.00 | 35 | 1008.8 |
| 20260506192040 | 66 | 276 | 1.7 | 2.6 | 0.00 | 0.00 | 0.00 | 34 | 1008.8 |
| 20260506191530 | 66 | 281 | 0.9 | 5.2 | 0.00 | 0.00 | 0.00 | 34 | 1008.8 |
| 20260506191043 | 67 | 276 | 1.7 | 5.2 | 0.00 | 0.00 | 0.00 | 33 | 1008.8 |
| 20260506190544 | 67 | 250 | 2.6 | 3.5 | 0.00 | 0.00 | 0.00 | 32 | 1008.7 |
| 20260506190046 | 67 | 252 | 0.9 | 2.6 | 0.00 | 0.00 | 0.00 | 30 | 1008.7 |
| 20260506185528 | 68 | 271 | 0.0 | 2.6 | 0.00 | 0.00 | 0.00 | 32 | 1008.7 |
| 20260506185036 | 68 | 284 | 1.7 | 2.6 | 0.00 | 0.00 | 0.00 | 31 | 1008.7 |
| 20260506184525 | 69 | 284 | 0.0 | 2.6 | 0.00 | 0.00 | 0.00 | 31 | 1008.7 |
| 20260506184025 | 69 | 309 | 1.7 | 3.5 | 0.00 | 0.00 | 0.00 | 29 | 1008.7 |
| 20260506183539 | 69 | 306 | 0.9 | 3.5 | 0.00 | 0.00 | 0.00 | 30 | 1008.7 |
| 20260506183025 | 70 | 290 | 1.7 | 3.5 | 0.00 | 0.00 | 0.00 | 29 | 1008.7 |
| 20260506182528 | 70 | 314 | 1.7 | 3.5 | 0.00 | 0.00 | 0.00 | 28 | 1008.7 |
| 20260506182034 | 71 | 319 | 0.0 | 0.0 | 0.00 | 0.00 | 0.00 | 27 | 1008.7 |
| 20260506181537 | 70 | 321 | 0.0 | 1.7 | 0.00 | 0.00 | 0.00 | 28 | 1008.7 |
| 20260506181044 | 70 | 354 | 0.0 | 1.7 | 0.00 | 0.00 | 0.00 | 28 | 1008.7 |
| 20260506180546 | 70 | 16 | 0.0 | 0.9 | 0.00 | 0.00 | 0.00 | 28 | 1008.7 |
| 20260506180108 | 71 | 46 | 0.0 | 1.7 | 0.00 | 0.00 | 0.00 | 27 | 1008.8 |
| 20260506175535 | 71 | 278 | 0.0 | 1.7 | 0.00 | 0.00 | 0.00 | 27 | 1008.7 |
| 20260506175046 | 71 | 303 | 0.0 | 2.6 | 0.00 | 0.00 | 0.00 | 27 | 1008.8 |
| 20260506174525 | 71 | 352 | 0.0 | 2.6 | 0.00 | 0.00 | 0.00 | 27 | 1008.9 |
| 20260506174041 | 71 | 293 | 0.0 | 2.6 | 0.00 | 0.00 | 0.00 | 27 | 1008.9 |
| 20260506173532 | 71 | 301 | 0.0 | 2.6 | 0.00 | 0.00 | 0.00 | 27 | 1008.9 |
| 20260506173022 | 70 | 297 | 0.0 | 5.2 | 0.00 | 0.00 | 0.00 | 27 | 1008.9 |
| 20260506172539 | 70 | 309 | 3.5 | 5.2 | 0.00 | 0.00 | 0.00 | 27 | 1009.0 |
| 20260506172024 | 71 | 314 | 1.7 | 3.5 | 0.00 | 0.00 | 0.00 | 27 | 1009.0 |
| 20260506171554 | 70 | 255 | 0.0 | 4.3 | 0.00 | 0.00 | 0.00 | 28 | 1008.9 |
| 20260506171047 | 69 | 252 | 2.6 | 5.2 | 0.00 | 0.00 | 0.00 | 27 | 1008.9 |
| 20260506170521 | 69 | 274 | 2.6 | 6.1 | 0.00 | 0.00 | 0.00 | 28 | 1009.0 |
| 20260506170046 | 69 | 295 | 0.9 | 6.1 | 0.00 | 0.00 | 0.00 | 30 | 1009.0 |
| 20260506165532 | 68 | 301 | 3.5 | 5.2 | 0.00 | 0.00 | 0.00 | 29 | 1008.9 |
| 20260506165027 | 68 | 281 | 0.9 | 4.3 | 0.00 | 0.00 | 0.00 | 29 | 1009.0 |
| 20260506164541 | 68 | 276 | 1.7 | 3.5 | 0.00 | 0.00 | 0.00 | 29 | 1009.1 |
| 20260506164023 | 69 | 315 | 1.7 | 4.3 | 0.00 | 0.00 | 0.00 | 28 | 1009.1 |
| 20260506163525 | 69 | 307 | 3.5 | 7.0 | 0.00 | 0.00 | 0.00 | 28 | 1009.1 |
| 20260506163042 | 70 | 283 | 6.1 | 7.0 | 0.00 | 0.00 | 0.00 | 27 | 1009.1 |
| 20260506162549 | 71 | 253 | 3.5 | 5.2 | 0.00 | 0.00 | 0.00 | 26 | 1009.1 |
| 20260506162041 | 72 | 259 | 0.0 | 4.3 | 0.00 | 0.00 | 0.00 | 25 | 1009.1 |
| 20260506161603 | 72 | 222 | 0.0 | 4.3 | 0.00 | 0.00 | 0.00 | 25 | 1009.1 |
| 20260506161021 | 72 | 125 | 0.0 | 0.9 | 0.00 | 0.00 | 0.00 | 26 | 1009.2 |
| 20260506160547 | 71 | 133 | 0.0 | 0.0 | 0.00 | 0.00 | 0.00 | 26 | 1009.2 |
| 20260506160106 | 71 | 328 | 0.0 | 1.7 | 0.00 | 0.00 | 0.00 | 27 | 1009.3 |
| 20260506155546 | 70 | 256 | 0.0 | 3.5 | 0.00 | 0.00 | 0.00 | 27 | 1009.3 |
| 20260506155050 | 69 | 218 | 0.9 | 5.2 | 0.00 | 0.00 | 0.00 | 28 | 1009.3 |
| 20260506154605 | 68 | 155 | 4.3 | 5.2 | 0.00 | 0.00 | 0.00 | 28 | 1009.4 |
| 20260506154041 | 68 | 98 | 0.0 | 3.5 | 0.00 | 0.00 | 0.00 | 27 | 1009.4 |
| 20260506153529 | 69 | 114 | 0.9 | 5.2 | 0.00 | 0.00 | 0.00 | 27 | 1009.4 |
| 20260506153028 | 68 | 83 | 1.7 | 7.8 | 0.00 | 0.00 | 0.00 | 28 | 1009.5 |
| 20260506152542 | 69 | 96 | 5.2 | 7.8 | 0.00 | 0.00 | 0.00 | 28 | 1009.5 |
| 20260506152037 | 69 | 112 | 0.9 | 4.3 | 0.00 | 0.00 | 0.00 | 28 | 1009.5 |
| 20260506151539 | 69 | 81 | 3.5 | 4.3 | 0.00 | 0.00 | 0.00 | 28 | 1009.5 |
| 20260506151023 | 69 | 50 | 0.9 | 5.2 | 0.00 | 0.00 | 0.00 | 29 | 1009.5 |
| 20260506150532 | 69 | 95 | 3.5 | 5.2 | 0.00 | 0.00 | 0.00 | 29 | 1009.6 |
| 20260506150105 | 69 | 53 | 0.9 | 5.2 | 0.00 | 0.00 | 0.00 | 29 | 1009.6 |
| 20260506145544 | 69 | 57 | 1.7 | 3.5 | 0.00 | 0.00 | 0.00 | 30 | 1009.7 |
| 20260506145048 | 68 | 101 | 0.9 | 5.2 | 0.00 | 0.00 | 0.00 | 30 | 1009.8 |
| 20260506144535 | 68 | 63 | 0.9 | 5.2 | 0.00 | 0.00 | 0.00 | 30 | 1009.9 |
| 20260506144044 | 68 | 39 | 2.6 | 4.3 | 0.00 | 0.00 | 0.00 | 30 | 1010.0 |
| 20260506143531 | 68 | 31 | 0.9 | 4.3 | 0.00 | 0.00 | 0.00 | 30 | 1010.0 |
| 20260506143024 | 68 | 349 | 1.7 | 4.3 | 0.00 | 0.00 | 0.00 | 30 | 1010.1 |
| 20260506142529 | 68 | 315 | 0.9 | 4.3 | 0.00 | 0.00 | 0.00 | 32 | 1010.2 |
| 20260506142033 | 67 | 319 | 0.0 | 1.7 | 0.00 | 0.00 | 0.00 | 31 | 1010.2 |
| 20260506141544 | 67 | 1 | 0.0 | 5.2 | 0.00 | 0.00 | 0.00 | 32 | 1010.4 |
| 20260506141043 | 67 | 56 | 0.0 | 5.2 | 0.00 | 0.00 | 0.00 | 32 | 1010.4 |
| 20260506140521 | 67 | 61 | 1.7 | 5.2 | 0.00 | 0.00 | 0.00 | 32 | 1010.5 |
| 20260506135533 | 67 | 33 | 0.0 | 3.5 | 0.00 | 0.00 | 0.00 | 31 | 1010.5 |
| 20260506135021 | 67 | 72 | 0.0 | 4.3 | 0.00 | 0.00 | 0.00 | 31 | 1010.6 |
| 20260506134525 | 68 | 315 | 0.0 | 6.1 | 0.00 | 0.00 | 0.00 | 31 | 1010.6 |
| 20260506134036 | 69 | 292 | 1.7 | 6.1 | 0.00 | 0.00 | 0.00 | 30 | 1010.7 |
| 20260506133527 | 69 | 323 | 0.0 | 5.2 | 0.00 | 0.00 | 0.00 | 30 | 1010.7 |
| 20260506133038 | 69 | 321 | 0.9 | 6.1 | 0.00 | 0.00 | 0.00 | 30 | 1010.8 |
| 20260506132544 | 69 | 319 | 1.7 | 6.1 | 0.00 | 0.00 | 0.00 | 31 | 1010.7 |
| 20260506132022 | 69 | 9 | 3.5 | 5.2 | 0.00 | 0.00 | 0.00 | 30 | 1010.8 |
| 20260506131522 | 69 | 331 | 1.7 | 4.3 | 0.00 | 0.00 | 0.00 | 31 | 1010.8 |
| 20260506131030 | 67 | 239 | 0.0 | 5.2 | 0.00 | 0.00 | 0.00 | 32 | 1010.9 |
| 20260506130530 | 66 | 113 | 3.5 | 8.7 | 0.00 | 0.00 | 0.00 | 33 | 1010.9 |
| 20260506130100 | 67 | 79 | 5.2 | 8.7 | 0.00 | 0.00 | 0.00 | 32 | 1011.0 |
| 20260506125609 | 67 | 85 | 0.0 | 5.2 | 0.00 | 0.00 | 0.00 | 33 | 1011.0 |
| 20260506125046 | 68 | 288 | 2.6 | 5.2 | 0.00 | 0.00 | 0.00 | 31 | 1011.0 |
| 20260506124534 | 68 | 307 | 0.9 | 5.2 | 0.00 | 0.00 | 0.00 | 32 | 1011.1 |
| 20260506124026 | 67 | 351 | 0.0 | 6.1 | 0.00 | 0.00 | 0.00 | 33 | 1011.2 |
| 20260506123537 | 67 | 249 | 4.3 | 6.1 | 0.00 | 0.00 | 0.00 | 34 | 1011.2 |
| 20260506123044 | 67 | 316 | 3.5 | 6.1 | 0.00 | 0.00 | 0.00 | 32 | 1011.2 |
| 20260506122547 | 67 | 170 | 0.9 | 7.0 | 0.00 | 0.00 | 0.00 | 34 | 1011.3 |
| 20260506122024 | 67 | 90 | 3.5 | 8.7 | 0.00 | 0.00 | 0.00 | 33 | 1011.4 |
| 20260506121557 | 68 | 58 | 5.2 | 8.7 | 0.00 | 0.00 | 0.00 | 32 | 1011.5 |
| 20260506121033 | 68 | 16 | 3.5 | 7.0 | 0.00 | 0.00 | 0.00 | 32 | 1011.5 |
| 20260506120535 | 69 | 181 | 0.0 | 5.2 | 0.00 | 0.00 | 0.00 | 32 | 1011.6 |
| 20260506120108 | 69 | 141 | 0.9 | 6.1 | 0.00 | 0.00 | 0.00 | 32 | 1011.6 |
| 20260506115528 | 68 | 248 | 1.7 | 5.2 | 0.00 | 0.00 | 0.00 | 33 | 1011.7 |
| 20260506115031 | 67 | 56 | 0.0 | 6.1 | 0.00 | 0.00 | 0.00 | 33 | 1011.8 |
| 20260506114527 | 68 | 158 | 2.6 | 6.1 | 0.00 | 0.00 | 0.00 | 32 | 1011.9 |
| 20260506114059 | 67 | 145 | 3.5 | 6.1 | 0.00 | 0.00 | 0.00 | 33 | 1011.9 |
| 20260506113544 | 67 | 205 | 0.0 | 3.5 | 0.00 | 0.00 | 0.00 | 34 | 1012.0 |
| 20260506113044 | 66 | 68 | 2.6 | 3.5 | 0.00 | 0.00 | 0.00 | 35 | 1012.0 |
| 20260506112551 | 65 | 240 | 0.9 | 7.8 | 0.00 | 0.00 | 0.00 | 35 | 1012.0 |
| 20260506112033 | 65 | 91 | 0.9 | 7.8 | 0.00 | 0.00 | 0.00 | 35 | 1012.1 |
| 20260506111544 | 66 | 65 | 3.5 | 7.0 | 0.00 | 0.00 | 0.00 | 34 | 1012.0 |
| 20260506111036 | 67 | 111 | 0.0 | 3.5 | 0.00 | 0.00 | 0.00 | 34 | 1012.1 |
| 20260506110536 | 66 | 146 | 0.0 | 3.5 | 0.00 | 0.00 | 0.00 | 34 | 1012.1 |
| 20260506110050 | 66 | 302 | 0.0 | 2.6 | 0.00 | 0.00 | 0.00 | 36 | 1012.2 |
| 20260506105531 | 65 | 266 | 0.0 | 7.8 | 0.00 | 0.00 | 0.00 | 36 | 1012.2 |
| 20260506105106 | 66 | 65 | 5.2 | 10.4 | 0.00 | 0.00 | 0.00 | 34 | 1012.3 |
| 20260506104528 | 66 | 164 | 5.2 | 10.4 | 0.00 | 0.00 | 0.00 | 35 | 1012.4 |
| 20260506104036 | 66 | 163 | 0.9 | 2.6 | 0.00 | 0.00 | 0.00 | 36 | 1012.3 |
| 20260506103527 | 65 | 49 | 0.0 | 4.3 | 0.00 | 0.00 | 0.00 | 38 | 1012.3 |
| 20260506103035 | 64 | 64 | 1.7 | 4.3 | 0.00 | 0.00 | 0.00 | 38 | 1012.3 |
| 20260506102529 | 64 | 290 | 1.7 | 7.0 | 0.00 | 0.00 | 0.00 | 38 | 1012.4 |
| 20260506102049 | 64 | 111 | 0.0 | 7.0 | 0.00 | 0.00 | 0.00 | 37 | 1012.4 |
| 20260506101523 | 65 | 56 | 4.3 | 5.2 | 0.00 | 0.00 | 0.00 | 38 | 1012.5 |
| 20260506101045 | 65 | 52 | 0.0 | 3.5 | 0.00 | 0.00 | 0.00 | 39 | 1012.5 |
| 20260506100538 | 63 | 124 | 0.9 | 4.3 | 0.00 | 0.00 | 0.00 | 40 | 1012.5 |
| 20260506100108 | 63 | 72 | 2.6 | 7.8 | 0.00 | 0.00 | 0.00 | 40 | 1012.6 |
| 20260506095524 | 63 | 104 | 2.6 | 7.8 | 0.00 | 0.00 | 0.00 | 41 | 1012.6 |
| 20260506095031 | 63 | 39 | 1.7 | 3.5 | 0.00 | 0.00 | 0.00 | 42 | 1012.6 |
| 20260506094546 | 62 | 291 | 0.0 | 5.2 | 0.00 | 0.00 | 0.00 | 43 | 1012.6 |
| 20260506094025 | 62 | 78 | 3.5 | 7.0 | 0.00 | 0.00 | 0.00 | 42 | 1012.5 |
| 20260506093522 | 63 | 74 | 5.2 | 7.0 | 0.00 | 0.00 | 0.00 | 42 | 1012.5 |
| 20260506093103 | 62 | 100 | 0.0 | 5.2 | 0.00 | 0.00 | 0.00 | 43 | 1012.4 |
| 20260506092520 | 62 | 102 | 1.7 | 5.2 | 0.00 | 0.00 | 0.00 | 45 | 1012.5 |
| 20260506092030 | 61 | 54 | 1.7 | 4.3 | 0.00 | 0.00 | 0.00 | 45 | 1012.5 |
| 20260506091520 | 62 | 155 | 0.9 | 5.2 | 0.00 | 0.00 | 0.00 | 44 | 1012.4 |
| 20260506091044 | 62 | 113 | 2.6 | 5.2 | 0.00 | 0.00 | 0.00 | 44 | 1012.4 |
| 20260506090531 | 62 | 60 | 0.0 | 2.6 | 0.00 | 0.00 | 0.00 | 44 | 1012.5 |
| 20260506090059 | 62 | 68 | 0.0 | 0.9 | 0.00 | 0.00 | 0.00 | 46 | 1012.5 |
| 20260506085526 | 61 | 225 | 0.0 | 5.2 | 0.00 | 0.00 | 0.00 | 47 | 1012.6 |
| 20260506085027 | 61 | 88 | 2.6 | 5.2 | 0.00 | 0.00 | 0.00 | 46 | 1012.5 |
| 20260506084533 | 62 | 131 | 0.9 | 3.5 | 0.00 | 0.00 | 0.00 | 45 | 1012.5 |
| 20260506084041 | 62 | 89 | 0.0 | 1.7 | 0.00 | 0.00 | 0.00 | 46 | 1012.5 |
| 20260506083527 | 61 | 154 | 0.0 | 2.6 | 0.00 | 0.00 | 0.00 | 46 | 1012.6 |
| 20260506083037 | 61 | 341 | 0.0 | 2.6 | 0.00 | 0.00 | 0.00 | 46 | 1012.6 |
| 20260506082535 | 61 | 107 | 0.0 | 1.7 | 0.00 | 0.00 | 0.00 | 48 | 1012.6 |
| 20260506082034 | 60 | 135 | 0.0 | 1.7 | 0.00 | 0.00 | 0.00 | 49 | 1012.6 |
| 20260506081533 | 60 | 135 | 0.0 | 1.7 | 0.00 | 0.00 | 0.00 | 48 | 1012.6 |
| 20260506081022 | 60 | 50 | 0.0 | 1.7 | 0.00 | 0.00 | 0.00 | 50 | 1012.7 |
| 20260506080525 | 60 | 83 | 0.0 | 2.6 | 0.00 | 0.00 | 0.00 | 50 | 1012.6 |
| 20260506073523 | 57 | 44 | 0.0 | 2.6 | 0.00 | 0.00 | 0.00 | 58 | 1012.7 |
| 20260506073030 | 56 | 308 | 0.0 | 2.6 | 0.00 | 0.00 | 0.00 | 59 | 1012.7 |
| 20260506072543 | 55 | 308 | 0.0 | 2.6 | 0.00 | 0.00 | 0.00 | 61 | 1012.7 |
| 20260506072022 | 56 | 308 | 0.9 | 1.7 | 0.00 | 0.00 | 0.00 | 60 | 1012.6 |
| 20260506071522 | 56 | 330 | 0.0 | 0.9 | 0.00 | 0.00 | 0.00 | 59 | 1012.6 |
| 20260506071028 | 55 | 326 | 0.0 | 0.9 | 0.00 | 0.00 | 0.00 | 61 | 1012.6 |
| 20260506070529 | 54 | 284 | 0.0 | 0.9 | 0.00 | 0.00 | 0.00 | 64 | 1012.6 |
| 20260506070105 | 53 | 282 | 0.0 | 1.7 | 0.00 | 0.00 | 0.00 | 65 | 1012.7 |
| 20260506062030 | 52 | 210 | 0.0 | 0.0 | 0.00 | 0.00 | 0.00 | 65 | 1012.7 |
| 20260506061541 | 51 | 210 | 0.0 | 0.0 | 0.00 | 0.00 | 0.00 | 66 | 1012.7 |
| 20260506061059 | 51 | 210 | 0.0 | 0.0 | 0.00 | 0.00 | 0.00 | 65 | 1012.7 |
| 20260506060543 | 51 | 210 | 0.0 | 0.0 | 0.00 | 0.00 | 0.00 | 65 | 1012.6 |
| 20260506060107 | 51 | 210 | 0.0 | 0.0 | 0.00 | 0.00 | 0.00 | 66 | 1012.7 |
| 20260506051024 | 0 | 0.0 | 0.0 | 0.00 | 0.00 | 0.00 | 1012.6 | ||
| 20260506050538 | 0 | 0.0 | 0.0 | 0.00 | 0.00 | 0.00 | 1012.6 | ||
| 20260506050119 | 0 | 0.0 | 0.0 | 0.00 | 0.00 | 0.00 | 1012.5 | ||
| 20260506045042 | 48 | 236 | 0.0 | 0.0 | 0.00 | 0.00 | 0.00 | 72 | 1012.4 |
| 20260506044528 | 48 | 236 | 0.0 | 0.9 | 0.00 | 0.00 | 0.00 | 72 | 1012.4 |
| 20260506044058 | 47 | 228 | 0.0 | 0.9 | 0.00 | 0.00 | 0.00 | 72 | 1012.4 |
| 20260506043541 | 46 | 228 | 0.0 | 0.9 | 0.00 | 0.00 | 0.00 | 72 | 1012.4 |
| 20260506043027 | 46 | 228 | 0.0 | 0.9 | 0.00 | 0.00 | 0.00 | 72 | 1012.4 |
| 20260506042537 | 46 | 255 | 0.0 | 0.0 | 0.00 | 0.00 | 0.00 | 72 | 1012.4 |
| 20260506042038 | 46 | 255 | 0.0 | 0.0 | 0.00 | 0.00 | 0.00 | 72 | 1012.4 |
| 20260506041545 | 46 | 255 | 0.0 | 0.0 | 0.00 | 0.00 | 0.00 | 72 | 1012.4 |
| 20260506041045 | 46 | 255 | 0.0 | 0.0 | 0.00 | 0.00 | 0.00 | 73 | 1012.4 |
| 20260506040530 | 46 | 255 | 0.0 | 0.0 | 0.00 | 0.00 | 0.00 | 72 | 1012.3 |
| 20260506040055 | 46 | 255 | 0.0 | 0.9 | 0.00 | 0.00 | 0.00 | 72 | 1012.3 |
| 20260506035530 | 47 | 255 | 0.0 | 0.9 | 0.00 | 0.00 | 0.00 | 72 | 1012.3 |
| 20260506035059 | 47 | 255 | 0.0 | 0.0 | 0.00 | 0.00 | 0.00 | 72 | 1012.4 |
| 20260506034540 | 47 | 255 | 0.0 | 0.0 | 0.00 | 0.00 | 0.00 | 71 | 1012.4 |
| 20260506034027 | 47 | 255 | 0.0 | 0.0 | 0.00 | 0.00 | 0.00 | 71 | 1012.4 |
| 20260506033540 | 47 | 255 | 0.0 | 0.0 | 0.00 | 0.00 | 0.00 | 71 | 1012.4 |
| 20260506033044 | 47 | 255 | 0.0 | 0.0 | 0.00 | 0.00 | 0.00 | 71 | 1012.3 |
| 20260506032520 | 47 | 255 | 0.0 | 0.9 | 0.00 | 0.00 | 0.00 | 71 | 1012.4 |
| 20260506032044 | 47 | 255 | 0.0 | 0.9 | 0.00 | 0.00 | 0.00 | 70 | 1012.4 |
| 20260506031525 | 47 | 273 | 0.0 | 0.9 | 0.00 | 0.00 | 0.00 | 70 | 1012.4 |
| 20260506031025 | 47 | 272 | 0.0 | 2.6 | 0.00 | 0.00 | 0.00 | 70 | 1012.4 |
| 20260506030529 | 47 | 277 | 0.9 | 3.5 | 0.00 | 0.00 | 0.00 | 70 | 1012.4 |
| 20260506030055 | 48 | 276 | 1.7 | 3.5 | 0.00 | 0.00 | 0.00 | 69 | 1012.4 |
| 20260506025535 | 48 | 271 | 0.9 | 3.5 | 0.00 | 0.00 | 0.00 | 69 | 1012.3 |
| 20260506025043 | 48 | 253 | 2.6 | 2.6 | 0.00 | 0.00 | 0.00 | 69 | 1012.3 |
| 20260506024528 | 48 | 256 | 2.6 | 2.6 | 0.00 | 0.00 | 0.00 | 69 | 1012.3 |
| 20260506024027 | 48 | 266 | 1.7 | 1.7 | 0.00 | 0.00 | 0.00 | 70 | 1012.3 |
| 20260506023540 | 48 | 250 | 0.0 | 0.9 | 0.00 | 0.00 | 0.00 | 70 | 1012.3 |
| 20260506023037 | 48 | 216 | 0.0 | 0.0 | 0.00 | 0.00 | 0.00 | 70 | 1012.4 |
| 20260506022540 | 47 | 217 | 0.0 | 0.0 | 0.00 | 0.00 | 0.00 | 71 | 1012.4 |
| 20260506022022 | 47 | 217 | 0.0 | 0.0 | 0.00 | 0.00 | 0.00 | 71 | 1012.5 |
| 20260506021529 | 47 | 217 | 0.0 | 0.0 | 0.00 | 0.00 | 0.00 | 71 | 1012.5 |
| 20260506021043 | 47 | 217 | 0.0 | 0.0 | 0.00 | 0.00 | 0.00 | 72 | 1012.4 |
| 20260506020530 | 46 | 217 | 0.0 | 0.0 | 0.00 | 0.00 | 0.00 | 72 | 1012.4 |
| 20260506020107 | 46 | 216 | 0.0 | 0.0 | 0.00 | 0.00 | 0.00 | 72 | 1012.5 |
| 20260506015544 | 47 | 216 | 0.0 | 0.0 | 0.00 | 0.00 | 0.00 | 70 | 1012.5 |
| 20260506015040 | 47 | 216 | 0.0 | 0.0 | 0.00 | 0.00 | 0.00 | 71 | 1012.6 |
| 20260506014541 | 47 | 216 | 0.0 | 0.0 | 0.00 | 0.00 | 0.00 | 70 | 1012.6 |
| 20260506014021 | 48 | 217 | 0.0 | 0.0 | 0.00 | 0.00 | 0.00 | 70 | 1012.6 |
| 20260506013521 | 48 | 217 | 0.0 | 0.9 | 0.00 | 0.00 | 0.00 | 68 | 1012.7 |
| 20260506013020 | 49 | 217 | 0.0 | 0.9 | 0.00 | 0.00 | 0.00 | 67 | 1012.7 |
| 20260506012533 | 49 | 217 | 0.0 | 1.7 | 0.00 | 0.00 | 0.00 | 67 | 1012.7 |
| 20260506012031 | 49 | 217 | 0.0 | 1.7 | 0.00 | 0.00 | 0.00 | 67 | 1012.8 |
| 20260506011520 | 49 | 221 | 1.7 | 1.7 | 0.00 | 0.00 | 0.00 | 67 | 1012.7 |
| 20260506011032 | 49 | 239 | 0.0 | 0.0 | 0.00 | 0.00 | 0.00 | 67 | 1012.7 |
| 20260506010538 | 49 | 207 | 0.0 | 0.0 | 0.00 | 0.00 | 0.00 | 66 | 1012.9 |
| 20260506010131 | 49 | 358 | 0.0 | 0.9 | 0.00 | 0.00 | 0.00 | 66 | 1013.0 |
| 20260506005520 | 49 | 360 | 0.0 | 6.1 | 0.00 | 0.00 | 0.00 | 65 | 1013.0 |
| 20260506005033 | 49 | 304 | 3.5 | 6.1 | 0.00 | 0.00 | 0.00 | 64 | 1013.1 |
| 20260506004531 | 50 | 291 | 3.5 | 5.2 | 0.00 | 0.00 | 0.00 | 62 | 1013.1 |
| 20260506004032 | 51 | 240 | 2.6 | 4.3 | 0.00 | 0.00 | 0.00 | 61 | 1013.0 |
| 20260506003529 | 51 | 246 | 3.5 | 4.3 | 0.00 | 0.00 | 0.00 | 61 | 1013.0 |
| 20260506003043 | 51 | 250 | 2.6 | 4.3 | 0.00 | 0.00 | 0.00 | 60 | 1013.1 |